Regional Weather Roundup
Issued by NWS

Home | Current Version | Previous Version | Graphics & Text | Print | Product List | Glossary On
Versions: 1 2 3 4 5 6 7 8 9 10 11 12 13 14 15 16 17 18 19 20 21 22 23 24 25 26 27 28 29 30 31 32 33 34 35 36 37 38 39 40 41 42 43 44 45 46 47 48 49 50
000
ASUS43 KMKX 141020
RWRWI

WISCONSIN REGIONAL WEATHER ROUNDUP
NATIONAL WEATHER SERVICE MILWAUKEE/SULLIVAN WI
400 AM CST THU DEC 14 2017

NOTE: "FAIR" INDICATES FEW OR NO CLOUDS BELOW 12,000 FEET WITH NO
SIGNIFICANT WEATHER AND/OR OBSTRUCTIONS TO VISIBILITY.

WIZ001-002-006>008-014>016-023>028-141100-
NORTHWEST WISCONSIN

CITY           SKY/WX    TMP DP  RH WIND       PRES   REMARKS
SUPERIOR ARPT  CLOUDY     8   6  91 SW5       29.99S WCI  -1
ASHLAND        PTCLDY    10   6  84 W6        29.97R WCI   0
HAYWARD        CLOUDY    17  12  80 NW3       29.95R
SIREN          FLURRIES  17  15  92 W5        29.99R WCI  10
CUMBERLAND     CLOUDY    12   9  85 CALM      29.96S
RICE LAKE      CLOUDY    12  10  91 CALM      29.99S FOG
CHETEK         CLOUDY    11   9  92 CALM      29.99R
LADYSMITH      CLOUDY    12  10  89 CALM      29.97S
EAU CLAIRE     CLOUDY     7   4  87 SW5       29.99R FOG     WCI  -2
MENOMONIE      CLOUDY     8   5  89 CALM      30.00S FOG
NEW RICHMOND   FLURRIES  15  12  89 CALM      29.99S
OSCEOLA        FLURRIES  17  17 100 CALM      30.03R
$$

WIZ003>005-009-010-017-018-141100-
NORTH CENTRAL WISCONSIN

CITY           SKY/WX    TMP DP  RH WIND       PRES   REMARKS
MANITOWISH WTR FLURRIES  11  10  95 W6        29.88S WCI   2
ARBOR VITAE    FLURRIES  17  12  82 CALM      29.88R
WOODRUFF       FLURRIES  17  12  82 CALM      29.88R
RHINELANDER    CLOUDY    13   8  81 W3        29.89R
EAGLE RIVER    CLOUDY    13   6  75 NW5       29.87R WCI   5
LAND O LAKES   CLOUDY    13   8  80 NW5       29.88R WCI   5
PHILLIPS       CLEAR     -2  -3  92 CALM      29.92R
TOMAHAWK       CLOUDY     3   0  88 W5        29.92R WCI  -6
MEDFORD        CLOUDY     3  -1  86 NW3       29.93R
MERRILL        CLOUDY    11   8  86 W3        29.93R
$$

WIZ029-030-035-036-043>047-141100-
CENTRAL WISCONSIN

CITY           SKY/WX    TMP DP  RH WIND       PRES   REMARKS
WAUSAU         CLOUDY     9   6  88 N5        29.92R WCI   1
MOSINEE        CLOUDY     9   7  92 W3        29.94R
MARSHFIELD     PTCLDY     3   1  91 NW5       29.93R WCI  -6
STEVENS POINT  PTCLDY    -2  -5  88 CALM      29.95R
WAUPACA        CLOUDY     7   3  85 CALM      29.96S
WAUTOMA        CLOUDY     1  -4  79 CALM      29.97R
WISC RAPIDS    PTCLDY     3   0  87 CALM      29.96R
CAMP DOUGLAS   CLEAR      4   1  85 W5        29.97R WCI  -5
$$

WIZ011>013-019>022-031-037>040-048>050-141100-
NORTHEAST WISCONSIN

CITY           SKY/WX    TMP DP  RH WIND       PRES   REMARKS
ANTIGO         CLOUDY     3   1  91 W6        29.90R WCI  -8
SHAWANO        CLOUDY     9   5  86 CALM      29.94S
OCONTO         CLOUDY    -3  -6  85 CALM      29.94S
STURGEON BAY   CLOUDY    17   9  70 NW14      29.92R WCI   3
GREEN BAY      CLOUDY     7   2  80 NW8       29.95R WCI  -6
MANITOWOC      CLOUDY     9   6  88 NW12      29.95R WCI  -6
APPLETON       CLOUDY     5   1  85 NW7       29.92S WCI  -7
CLINTONVILLE   CLOUDY     5   1  85 CALM      29.94F
OSHKOSH        CLOUDY     8   5  87 W5        29.94S WCI   0
$$

WIZ032>034-041-042-053>061-141100-
SOUTHWEST WISCONSIN

CITY           SKY/WX    TMP DP  RH WIND       PRES   REMARKS
LA CROSSE      PTCLDY    10   8  92 CALM      30.01S
SPARTA         PTCLDY     1  -1  89 CALM      30.00R
VIROQUA        PTCLDY    10  10  98 CALM      29.95S
BOSCOBEL       PTCLDY    11   7  84 CALM      30.00S
PRAIRIE DU CHI CLOUDY    15  11  83 CALM      30.00F
PLATTEVILLE    CLOUDY    14  12  91 CALM      29.97S
$$

WIZ056-057-062-063-064-067-068-141100-
SOUTH CENTRAL WISCONSIN

CITY           SKY/WX    TMP DP  RH WIND       PRES   REMARKS
REEDSBURG      CLEAR     12  11  95 CALM      29.97S
BARABOO/DELLS  CLEAR      9   7  89 CALM      29.96R
LONE ROCK      CLEAR      8   6  92 W3        29.99S
MINERAL POINT  CLEAR     18  12  79 CALM      29.95S
MADISON        CLEAR     10   7  87 N3        29.95S
MIDDLETON      CLEAR     11   8  85 NW3       29.96F
WATERTOWN      CLOUDY    10   9  94 CALM      29.95R
MONROE         CLEAR     16  10  79 N5        29.95R WCI   9
JANESVILLE     PTCLDY    16  10  79 N6        29.96R WCI   7
$$

WIZ051-052-058>065-066-070>072-141100-
SOUTHEAST WISCONSIN

CITY           SKY/WX    TMP DP  RH WIND       PRES   REMARKS
MILWAUKEE      MOCLDY    16   9  74 NW8       29.94R WCI   5
WAUKESHA       CLOUDY     9   5  85 NW7       29.95R WCI  -3
MILWAUKEE/TIMM CLEAR     12   7  79 N10       29.95R WCI  -1
RACINE         CLOUDY    15   9  76 NW10      29.95R WCI   2
BURLINGTON     CLEAR     12   9  89 NW8       29.94R WCI   0
KENOSHA        CLEAR     15   7  70 NW10      29.93R WCI   2
FOND DU LAC    FLURRIES   8   3  80 NW8       29.95R WCI  -4
SHEBOYGAN      CLOUDY    10   7  87 NW7       29.94R WCI  -1
WEST BEND      CLOUDY     9   9 100 W5        29.95R WCI   0
JUNEAU         CLOUDY     9   6  90 CALM      29.96S
$$

LSZ147-162-141100-
LAKE SUPERIOR

STATION/POSITION TIME  TEMP    WIND        PRES    WAVE
                       AIR SEA DIR/SP/G            HT/PER
                 (UTC) (F)     (DEG/KT/KT) (MB)    (FT/S)
DEVILS ISLAND    1000   19     280/  7/ 10 1015.7R
SAXON HARBOR     0940   17                 1014.2R
$$

LMZ867-665-643>646-141100-
LAKE MICHIGAN

STATION/POSITION TIME  TEMP    WIND        PRES    WAVE
                       AIR SEA DIR/SP/G            HT/PER
                 (UTC) (F)     (DEG/KT/KT) (MB)    (FT/S)
NORTHPORT PIER   0952   21     320/ 15     1012.5R
KEWAUNEE LAKESHO 0954   11     300/  5/  6 1013.0R
SHEBOYGAN LAKESH 1000   14     310/ 12/ 14 1015.0R
PORT WASHINGTON  0940   12     310/  7/ 11 1015.2R
MILWAUKEE LAKESH 1000   16     320/ 11/ 14   N/A
KENOSHA   LAKESH 1000   15     310/ 12/ 16 1013.9
$$

TC  - TEMPERATURE IN CELSIUS
VSB - VISIBILITY IN STATUTE MILES
WCI - WIND CHILL INDEX
HX  - HEAT INDEX





USA.gov is the U.S. government's official web portal to all federal, state and local government web resources and services.